Change the Weather History Date:

Thursday, March 6, 2014

  Actual Average Record
Temperature  
Mean Temperature 25 °F 33 °F  
Max Temperature 36 °F 42 °F 69 °F (1935)
Min Temperature 13 °F 25 °F -4 °F (2015)
Degree Days  
Heating Degree Days 40 32  
Month to date heating degree days 282 196  
Since 1 July heating degree days 5350 4844  
Cooling Degree Days 0 0  
Month to date cooling degree days 0 0  
Year to date cooling degree days 0 0  
Moisture  
Dew Point 8 °F    
Average Humidity 54    
Maximum Humidity 67    
Minimum Humidity 40    
Precipitation  
Precipitation 0.00 in 0.09 in 0.84 in (1991)
Month to date precipitation 0.09 0.51  
Year to date precipitation 4.78 5.21  
Snow  
Snow 0.00 in 0.40 in - ()
Month to date snowfall 1.9 2.6  
Since 1 July snowfall 82.9 51.4  
Snow Depth 1.00 in    
Sea Level Pressure  
Sea Level Pressure 30.37 in    
Wind  
Wind Speed 12 mph (ESE)    
Max Wind Speed 20 mph    
Max Gust Speed 24 mph    
Visibility 10 miles    
Events      
T = Trace of Precipitation, MM = Missing Value Source: NWS Daily Summary

Daily Weather History Graph

Daily Weather History Graph

Search for Another Location

Airport or City:

Trip Planner

Search our weather history database for the weather conditions in past years. The results will help you decide how hot, cold, wet, or windy it might be!

Date:

Astronomy

Mar. 06, 2014 Rise Set
Actual Time 6:49 AM EST 6:19 PM EST
Civil Twilight 6:21 AM EST 6:46 PM EST
Nautical Twilight 5:49 AM EST 7:18 PM EST
Astronomical Twilight 5:17 AM EST 7:50 PM EST
Moon 9:52 AM EST (3/6) No Moon Set
Length of Visible Light 12h 25m
Length of Day
11h 30m
Waxing Crescent, 32% of the Moon is Illuminated
Mar 6
Waxing Crescent
Mar 8
First Quarter
Mar 16
Full
Mar 23
Last Quarter
Mar 30
New

Hourly Weather History & Observations

Time (EST) Temp. Windchill Dew Point Humidity Pressure Visibility Wind Dir Wind Speed Gust Speed Precip Events Conditions
12:51 AM 12.9 °F -0.9 °F 3.9 °F 67% 30.47 in 10.0 mi ENE 11.5 mph - N/A   Mostly Cloudy
1:51 AM 12.9 °F 0.7 °F 3.9 °F 67% 30.47 in 10.0 mi ENE 9.2 mph - N/A   Mostly Cloudy
2:51 AM 12.9 °F -0.2 °F 3.9 °F 67% 30.45 in 10.0 mi East 10.4 mph - N/A   Overcast
3:51 AM 14.0 °F 0.5 °F 3.0 °F 62% 30.44 in 10.0 mi East 11.5 mph - N/A   Overcast
4:51 AM 15.1 °F 0.5 °F 1.9 °F 56% 30.45 in 10.0 mi East 13.8 mph - N/A   Overcast
5:51 AM 15.1 °F 1.1 °F -0.0 °F 51% 30.46 in 10.0 mi East 12.7 mph - N/A   Partly Cloudy
6:51 AM 14.0 °F 2.9 °F -0.0 °F 54% 30.48 in 10.0 mi East 8.1 mph - N/A   Overcast
7:51 AM 15.1 °F 1.8 °F -0.9 °F 49% 30.47 in 10.0 mi East 11.5 mph - N/A   Overcast
8:51 AM 17.1 °F 2.0 °F 1.0 °F 50% 30.47 in 10.0 mi ESE 16.1 mph 19.6 mph N/A   Mostly Cloudy
9:51 AM 21.0 °F 8.1 °F 3.0 °F 46% 30.44 in 10.0 mi ESE 13.8 mph 21.9 mph N/A   Mostly Cloudy
10:51 AM 24.1 °F 12.5 °F 5.0 °F 44% 30.41 in 10.0 mi ESE 12.7 mph - N/A   Mostly Cloudy
11:51 AM 27.0 °F 15.2 °F 9.0 °F 47% 30.39 in 10.0 mi ESE 15.0 mph - N/A   Scattered Clouds
12:51 PM 30.9 °F 21.2 °F 10.9 °F 43% 30.38 in 10.0 mi SE 12.7 mph 21.9 mph N/A   Scattered Clouds
1:51 PM 33.1 °F 23.9 °F 12.9 °F 43% 30.33 in 10.0 mi ESE 12.7 mph - N/A   Scattered Clouds
2:51 PM 34.0 °F 25.5 °F 14.0 °F 44% 30.32 in 10.0 mi ESE 11.5 mph - N/A   Partly Cloudy
3:51 PM 35.1 °F 27.4 °F 15.1 °F 44% 30.29 in 10.0 mi ESE 10.4 mph - N/A   Scattered Clouds
4:51 PM 35.1 °F 26.9 °F 14.0 °F 42% 30.27 in 10.0 mi ESE 11.5 mph - N/A   Partly Cloudy
5:51 PM 34.0 °F 26.0 °F 15.1 °F 46% 30.27 in 10.0 mi ESE 10.4 mph - N/A   Partly Cloudy
6:51 PM 30.9 °F 22.2 °F 14.0 °F 50% 30.28 in 10.0 mi ESE 10.4 mph - N/A   Partly Cloudy
7:51 PM 28.9 °F 19.8 °F 14.0 °F 54% 30.27 in 10.0 mi ESE 10.4 mph - N/A   Clear
8:51 PM 28.9 °F 18.2 °F 12.9 °F 51% 30.25 in 10.0 mi ESE 13.8 mph - N/A   Clear
9:51 PM 28.0 °F 18.1 °F 12.9 °F 53% 30.25 in 10.0 mi SE 11.5 mph - N/A   Partly Cloudy
10:51 PM 28.0 °F 18.1 °F 12.9 °F 53% 30.22 in 10.0 mi SE 11.5 mph - N/A   Clear
11:51 PM 27.0 °F 17.3 °F 14.0 °F 58% 30.20 in 10.0 mi ESE 10.4 mph - N/A   Clear